カタログに戻る

STARLINK-37381

運用中通信SSO
NORAD 68774·PAYLOAD·🇺🇸 United States

打ち上げ Apr 19, 2026 から Vandenberg Space Force Base

Loading…

次のパス (今後24時間)

TLE

最新Source: CelesTrak SupGP

元期: Sep 15, 2026, 03:42 UTC

1 68774C 26086J   26258.15465278 -.00045489  00000+0 -14092-2 0  2582
2 68774  97.2840 293.6418 0000599 106.2310 286.9305 15.33528372    16

AllMySatでSTARLINK-37381をリアルタイム追跡

Download on the App Store